K3TE Weather Reports


time (UTC)temp
F
wind
direction
speed
knots
gust
knots
rain 1hr
in
rain 24hr
in
rain mn
in
humidity
%
barometer
mb
20260507010109 52 0 0.9 7.0 0.00 0.56 0.56 92 1011.6
20260507004600 53 301 1.7 8.7 0.00 0.56 0.56 92 1011.2
20260507003102 54 317 1.7 7.8 0.00 0.56 0.56 92 1011.0
20260507001606 55 318 1.7 8.7 0.00 0.56 0.56 93 1010.6
20260507000059 57 273 0.9 5.2 0.00 0.56 0.56 94 1010.4
20260506234600 58 0 0.0 2.6 0.00 0.56 0.56 95 1010.0
20260506233102 59 0 0.0 0.0 0.00 0.56 0.56 96 1009.9
20260506231559 59 0 0.0 0.0 0.00 0.56 0.56 96 1009.5
20260506230105 59 0 0.0 0.0 0.01 0.56 0.56 96 1009.2
20260506224600 60 0 0.0 0.0 0.01 0.56 0.56 96 1009.5
20260506223101 60 0 0.0 0.0 0.01 0.56 0.56 96 1009.3
20260506221601 60 0 0.0 1.7 0.01 0.56 0.56 96 1009.3
20260506220101 60 0 0.0 2.6 0.00 0.55 0.55 96 1009.1
20260506214600 60 0 0.0 2.6 0.00 0.55 0.55 96 1008.9
20260506213058 60 227 0.0 3.5 0.00 0.55 0.55 97 1008.7
20260506211558 60 243 0.9 4.3 0.00 0.55 0.55 97 1008.6
20260506210058 60 0 0.9 6.1 0.00 0.55 0.55 97 1008.5
20260506204600 59 0 0.0 3.5 0.00 0.55 0.55 97 1008.4
20260506203059 59 232 0.9 4.3 0.00 0.55 0.55 97 1008.4
20260506201625 59 245 0.9 3.5 0.00 0.55 0.55 97 1008.4
20260506200058 59 233 0.9 7.8 0.00 0.55 0.55 97 1008.5
20260506194559 59 63 0.0 3.5 0.00 0.55 0.55 97 1008.5
20260506193058 59 233 0.0 4.3 0.00 0.55 0.55 97 1008.6
20260506191559 58 216 0.0 3.5 0.01 0.55 0.55 97 1008.8
20260506190107 58 226 1.7 7.8 0.02 0.55 0.55 97 1008.8
20260506184601 58 192 0.9 4.3 0.05 0.55 0.55 97 1008.9
20260506183059 58 182 0.9 6.1 0.08 0.55 0.55 97 1009.0
20260506181601 58 198 0.9 5.2 0.11 0.54 0.54 97 1009.1
20260506180059 58 153 1.7 6.1 0.13 0.52 0.52 97 1009.1
20260506174601 58 207 0.9 10.4 0.14 0.50 0.50 97 1009.2
20260506173130 58 149 1.7 7.8 0.17 0.47 0.47 97 1009.2
20260506171601 58 143 0.9 7.0 0.13 0.43 0.43 97 1009.3
20260506164559 58 148 2.6 11.3 0.07 0.36 0.36 96 1009.4
20260506163114 57 207 1.7 8.7 0.03 0.30 0.30 96 1009.4
20260506161605 57 214 1.7 8.7 0.07 0.30 0.30 96 1009.5
20260506160103 57 197 1.7 7.8 0.12 0.30 0.30 95 1009.5
20260506154602 57 187 4.3 12.2 0.14 0.29 0.29 95 1009.4
20260506153100 57 168 3.5 11.3 0.14 0.27 0.27 95 1009.5
20260506151559 57 163 3.5 10.4 0.13 0.23 0.23 95 1009.8
20260506150057 58 172 2.6 8.7 0.10 0.18 0.18 95 1010.2
20260506144601 58 173 3.5 9.6 0.08 0.15 0.15 95 1009.8
20260506143100 58 125 0.9 6.1 0.07 0.13 0.13 95 1009.8
20260506141600 58 160 2.6 7.0 0.05 0.10 0.10 94 1009.7
20260506140104 58 165 2.6 7.8 0.05 0.08 0.08 93 1010.1
20260506134559 58 182 0.9 7.0 0.05 0.07 0.07 93 1010.2
20260506133103 58 0 1.7 7.0 0.05 0.06 0.06 93 1010.1
20260506131600 58 154 1.7 7.8 0.04 0.05 0.05 92 1010.3
20260506130106 58 170 0.9 7.8 0.03 0.03 0.03 91 1010.4
20260506124600 59 187 0.9 7.0 0.02 0.02 0.02 90 1010.5
20260506123058 59 172 1.7 9.6 0.01 0.01 0.01 88 1010.4
20260506121626 60 189 2.6 7.8 0.01 0.01 0.01 86 1010.3
20260506120111 59 180 2.6 10.4 0.00 0.00 0.00 87 1010.1
20260506114619 59 175 2.6 7.0 0.00 0.00 0.00 87 1010.1
20260506113058 60 149 1.7 7.8 0.00 0.00 0.00 86 1010.0
20260506111557 60 205 0.9 7.8 0.00 0.00 0.00 83 1010.1
20260506110058 61 187 1.7 7.0 0.00 0.00 0.00 80 1010.1
20260506104600 61 261 2.6 8.7 0.00 0.00 0.00 77 1009.8
20260506103100 61 195 4.3 10.4 0.00 0.00 0.00 76 1009.7
20260506101557 61 139 1.7 6.1 0.00 0.00 0.00 76 1009.6
20260506100057 61 207 1.7 5.2 0.00 0.00 0.00 75 1009.5
20260506094600 61 171 0.0 1.7 0.00 0.00 0.00 74 1009.6
20260506093113 62 0 0.0 5.2 0.00 0.00 0.00 72 1009.8
20260506091558 62 187 0.9 5.2 0.00 0.00 0.00 71 1009.7
20260506090121 61 187 1.7 5.2 0.00 0.00 0.00 71 1009.7
20260506084558 61 161 0.9 5.2 0.00 0.03 0.00 70 1009.8
20260506083058 62 0 0.9 4.3 0.00 0.03 0.00 69 1009.8
20260506081557 62 178 1.7 5.2 0.00 0.03 0.00 67 1009.8
20260506080110 62 145 1.7 5.2 0.00 0.03 0.00 66 1009.8
20260506073111 63 186 0.9 7.0 0.00 0.14 0.00 65 1010.0
20260506071557 62 159 0.9 3.5 0.00 0.14 0.00 65 1010.1
20260506061604 64 184 1.7 7.8 0.00 0.14 0.00 61 1010.6
20260506050104 64 276 0.9 7.8 0.00 0.14 0.00 58 1011.1
20260506044611 64 305 0.9 8.7 0.00 0.14 0.00 60 1011.1
20260506043059 64 0 0.9 6.1 0.00 0.14 0.00 59 1011.2
20260506041610 64 180 0.9 7.8 0.00 0.14 0.00 58 1011.2
20260506040104 64 159 0.0 7.0 0.00 0.14 0.00 56 1011.2
20260506034602 64 139 0.0 2.6 0.00 0.14 0.14 55 1011.2
20260506033059 66 0 0.9 6.1 0.00 0.14 0.14 53 1011.1
20260506031600 66 164 0.0 4.3 0.00 0.14 0.14 50 1011.2
20260506024608 67 180 1.7 7.0 0.00 0.14 0.14 48 1011.2
20260506023102 68 176 1.7 6.1 0.00 0.14 0.14 46 1011.3
20260506021558 69 148 2.6 7.8 0.00 0.14 0.14 45 1011.2
20260506020123 70 182 1.7 11.3 0.00 0.14 0.14 44 1011.2
20260506014559 70 160 1.7 8.7 0.00 0.14 0.14 45 1011.0
20260506013057 71 0 2.6 10.4 0.00 0.14 0.14 45 1010.9
20260506011600 71 222 1.7 10.4 0.00 0.14 0.14 44 1010.6